| time (UTC) | temp F | wind direction | speed knots | gust knots | rain 1hr in | rain 24hr in | rain mn in | humidity % | barometer mb |
| 20260508081605 | 49 | 360 | 0.0 | 0.0 | 0.00 | 0.01 | 0.00 | 82 | 1012.3 |
| 20260508080054 | 49 | 360 | 0.0 | 0.0 | 0.00 | 0.01 | 0.00 | 81 | 1012.4 |
| 20260508074547 | 49 | 360 | 0.0 | 0.0 | 0.00 | 0.01 | 0.00 | 79 | 1012.4 |
| 20260508073045 | 50 | 360 | 0.0 | 0.0 | 0.00 | 0.01 | 0.00 | 77 | 1012.6 |
| 20260508071545 | 49 | 360 | 0.0 | 0.0 | 0.00 | 0.01 | 0.00 | 77 | 1012.6 |
| 20260508070046 | 49 | 360 | 0.0 | 0.0 | 0.00 | 0.01 | 0.00 | 78 | 1012.9 |
| 20260508064542 | 48 | 360 | 0.0 | 0.0 | 0.00 | 0.01 | 0.00 | 79 | 1012.9 |
| 20260508063041 | 49 | 192 | 0.0 | 0.0 | 0.00 | 0.01 | 0.00 | 79 | 1012.9 |
| 20260508061540 | 49 | 360 | 0.0 | 0.0 | 0.00 | 0.01 | 0.00 | 78 | 1012.8 |
| 20260508060036 | 48 | 360 | 0.0 | 0.0 | 0.00 | 0.01 | 0.00 | 82 | 1012.9 |
| 20260508054541 | 48 | 193 | 0.0 | 0.0 | 0.00 | 0.01 | 0.00 | 83 | 1013.0 |
| 20260508053033 | 47 | 360 | 0.0 | 0.0 | 0.00 | 0.01 | 0.00 | 84 | 1013.1 |
| 20260508051533 | 48 | 183 | 0.0 | 0.0 | 0.00 | 0.01 | 0.00 | 84 | 1013.2 |
| 20260508050030 | 48 | 190 | 0.0 | 0.0 | 0.00 | 0.01 | 0.00 | 83 | 1013.2 |
| 20260508044528 | 47 | 360 | 0.0 | 0.0 | 0.00 | 0.01 | 0.00 | 85 | 1013.2 |
| 20260508043026 | 46 | 360 | 0.0 | 0.0 | 0.00 | 0.01 | 0.00 | 86 | 1013.2 |
| 20260508041525 | 46 | 360 | 0.0 | 0.0 | 0.00 | 0.01 | 0.00 | 84 | 1013.3 |
| 20260508040022 | 47 | 360 | 0.0 | 0.0 | 0.00 | 0.01 | 0.00 | 84 | 1013.3 |
| 20260508034524 | 47 | 360 | 0.0 | 0.0 | 0.00 | 0.01 | 0.01 | 82 | 1013.4 |
| 20260508033026 | 48 | 184 | 0.0 | 0.0 | 0.00 | 0.01 | 0.01 | 81 | 1013.4 |
| 20260508031520 | 48 | 360 | 0.0 | 0.0 | 0.00 | 0.01 | 0.01 | 81 | 1013.4 |
| 20260508030020 | 48 | 333 | 0.0 | 0.0 | 0.00 | 0.01 | 0.01 | 81 | 1013.5 |
| 20260508024521 | 49 | 346 | 0.0 | 0.0 | 0.00 | 0.01 | 0.01 | 81 | 1013.5 |
| 20260508023021 | 49 | 360 | 0.0 | 0.0 | 0.00 | 0.01 | 0.01 | 81 | 1012.8 |
| 20260508021517 | 48 | 360 | 0.0 | 0.0 | 0.00 | 0.01 | 0.01 | 81 | 1012.5 |
| 20260508020017 | 49 | 190 | 0.0 | 0.0 | 0.00 | 0.01 | 0.01 | 81 | 1012.6 |
| 20260508014519 | 48 | 360 | 0.0 | 0.0 | 0.00 | 0.01 | 0.01 | 82 | 1012.4 |
| 20260508013016 | 49 | 170 | 0.0 | 0.0 | 0.00 | 0.01 | 0.01 | 81 | 1012.4 |
| 20260508011522 | 49 | 360 | 0.0 | 0.0 | 0.00 | 0.01 | 0.01 | 81 | 1012.4 |
| 20260508010016 | 49 | 360 | 0.0 | 0.0 | 0.00 | 0.01 | 0.01 | 80 | 1012.5 |
| 20260508004521 | 50 | 360 | 0.0 | 0.0 | 0.00 | 0.01 | 0.01 | 79 | 1012.4 |
| 20260508003014 | 51 | 163 | 0.0 | 0.0 | 0.00 | 0.01 | 0.01 | 79 | 1012.5 |
| 20260508001512 | 52 | 360 | 0.0 | 0.0 | 0.00 | 0.01 | 0.01 | 77 | 1012.6 |
| 20260508000010 | 51 | 38 | 0.0 | 0.0 | 0.00 | 0.01 | 0.01 | 77 | 1012.7 |
| 20260507234517 | 51 | 360 | 0.0 | 0.0 | 0.00 | 0.01 | 0.01 | 78 | 1013.0 |
| 20260507233008 | 51 | 360 | 0.0 | 0.0 | 0.00 | 0.01 | 0.01 | 77 | 1013.0 |
| 20260507231507 | 51 | 360 | 0.0 | 0.0 | 0.00 | 0.01 | 0.01 | 79 | 1013.3 |
| 20260507230006 | 52 | 360 | 0.0 | 0.0 | 0.01 | 0.01 | 0.01 | 79 | 1013.4 |
| 20260507224508 | 52 | 360 | 0.0 | 0.0 | 0.01 | 0.01 | 0.01 | 79 | 1013.7 |
| 20260507223005 | 51 | 360 | 0.0 | 0.0 | 0.01 | 0.01 | 0.01 | 81 | 1013.9 |
| 20260507221511 | 50 | 360 | 0.0 | 0.0 | 0.01 | 0.01 | 0.01 | 81 | 1014.4 |
| 20260507220003 | 54 | 360 | 0.0 | 0.0 | 0.00 | 0.00 | 0.00 | 62 | 1014.0 |
| 20260507214503 | 54 | 360 | 0.0 | 0.0 | 0.00 | 0.00 | 0.00 | 61 | 1013.6 |
| 20260507213000 | 55 | 360 | 0.0 | 0.0 | 0.00 | 0.00 | 0.00 | 60 | 1013.3 |
| 20260507211606 | 56 | 360 | 0.0 | 0.0 | 0.00 | 0.00 | 0.00 | 59 | 1013.2 |
| 20260507210059 | 55 | 360 | 0.0 | 0.0 | 0.00 | 0.00 | 0.00 | 56 | 1013.4 |
| 20260507204605 | 55 | 360 | 0.0 | 0.0 | 0.00 | 0.00 | 0.00 | 54 | 1013.4 |
| 20260507203107 | 55 | 360 | 0.0 | 0.0 | 0.00 | 0.00 | 0.00 | 51 | 1013.4 |
| 20260507201603 | 57 | 360 | 0.0 | 0.0 | 0.00 | 0.00 | 0.00 | 52 | 1013.5 |
| 20260507200056 | 56 | 360 | 0.0 | 0.0 | 0.00 | 0.00 | 0.00 | 51 | 1013.5 |
| 20260507194555 | 57 | 222 | 0.0 | 0.0 | 0.00 | 0.00 | 0.00 | 56 | 1013.7 |
| 20260507193058 | 57 | 360 | 0.0 | 0.0 | 0.00 | 0.00 | 0.00 | 55 | 1014.0 |
| 20260507191550 | 56 | 360 | 0.0 | 0.0 | 0.00 | 0.00 | 0.00 | 57 | 1014.1 |
| 20260507190048 | 57 | 237 | 0.0 | 0.0 | 0.00 | 0.00 | 0.00 | 54 | 1014.4 |
| 20260507184546 | 57 | 360 | 0.0 | 0.0 | 0.00 | 0.00 | 0.00 | 53 | 1014.6 |
| 20260507183046 | 56 | 360 | 0.0 | 0.0 | 0.00 | 0.00 | 0.00 | 53 | 1014.4 |
| 20260507181542 | 56 | 360 | 0.0 | 0.0 | 0.00 | 0.00 | 0.00 | 55 | 1014.6 |
| 20260507180043 | 54 | 360 | 0.0 | 0.0 | 0.00 | 0.00 | 0.00 | 57 | 1014.9 |
| 20260507174539 | 55 | 360 | 0.0 | 0.0 | 0.00 | 0.00 | 0.00 | 55 | 1015.1 |
| 20260507173041 | 55 | 360 | 0.0 | 0.0 | 0.00 | 0.00 | 0.00 | 58 | 1015.2 |
| 20260507171533 | 54 | 360 | 0.0 | 0.0 | 0.00 | 0.00 | 0.00 | 57 | 1015.3 |
| 20260507170029 | 54 | 360 | 0.0 | 0.0 | 0.00 | 0.00 | 0.00 | 58 | 1015.6 |
| 20260507164527 | 54 | 360 | 0.0 | 0.0 | 0.00 | 0.00 | 0.00 | 63 | 1015.9 |
| 20260507163026 | 53 | 360 | 0.0 | 0.0 | 0.00 | 0.00 | 0.00 | 61 | 1016.1 |
| 20260507161534 | 52 | 254 | 0.0 | 0.0 | 0.00 | 0.00 | 0.00 | 58 | 1016.3 |
| 20260507160022 | 52 | 360 | 0.0 | 0.0 | 0.00 | 0.00 | 0.00 | 58 | 1016.3 |
| 20260507154519 | 51 | 360 | 0.0 | 0.0 | 0.00 | 0.00 | 0.00 | 60 | 1016.4 |
| 20260507153014 | 51 | 360 | 0.0 | 0.0 | 0.00 | 0.00 | 0.00 | 59 | 1016.4 |
| 20260507151519 | 50 | 360 | 0.0 | 0.0 | 0.00 | 0.00 | 0.00 | 57 | 1016.2 |
| 20260507150011 | 50 | 360 | 0.0 | 0.0 | 0.00 | 0.00 | 0.00 | 59 | 1016.2 |
| 20260507144503 | 49 | 360 | 0.0 | 0.0 | 0.00 | 0.00 | 0.00 | 62 | 1016.2 |
| 20260507143105 | 49 | 360 | 0.0 | 0.0 | 0.00 | 0.00 | 0.00 | 62 | 1016.2 |
| 20260507141558 | 49 | 360 | 0.0 | 0.0 | 0.00 | 0.00 | 0.00 | 64 | 1016.2 |
| 20260507140053 | 48 | 360 | 0.0 | 0.0 | 0.00 | 0.00 | 0.00 | 67 | 1016.2 |
| 20260507134555 | 47 | 360 | 0.0 | 0.0 | 0.00 | 0.00 | 0.00 | 64 | 1016.3 |
| 20260507133045 | 46 | 360 | 0.0 | 0.0 | 0.00 | 0.00 | 0.00 | 72 | 1016.3 |
| 20260507131541 | 45 | 360 | 0.0 | 0.0 | 0.00 | 0.00 | 0.00 | 74 | 1016.3 |
| 20260507130036 | 45 | 360 | 0.0 | 0.0 | 0.00 | 0.00 | 0.00 | 73 | 1016.2 |
| 20260507124533 | 44 | 360 | 0.0 | 0.0 | 0.00 | 0.00 | 0.00 | 76 | 1016.1 |
| 20260507123028 | 42 | 360 | 0.0 | 0.0 | 0.00 | 0.00 | 0.00 | 80 | 1016.0 |
| 20260507121525 | 40 | 290 | 0.0 | 0.0 | 0.00 | 0.00 | 0.00 | 85 | 1015.9 |
| 20260507120023 | 39 | 360 | 0.0 | 0.0 | 0.00 | 0.00 | 0.00 | 86 | 1016.2 |
| 20260507114526 | 38 | 360 | 0.0 | 0.0 | 0.00 | 0.00 | 0.00 | 86 | 1016.1 |
| 20260507113018 | 38 | 360 | 0.0 | 0.0 | 0.00 | 0.00 | 0.00 | 86 | 1016.0 |
| 20260507111520 | 38 | 360 | 0.0 | 0.0 | 0.00 | 0.00 | 0.00 | 85 | 1015.8 |
| 20260507110013 | 38 | 360 | 0.0 | 0.0 | 0.00 | 0.00 | 0.00 | 85 | 1015.7 |
| 20260507104509 | 38 | 360 | 0.0 | 0.0 | 0.00 | 0.00 | 0.00 | 85 | 1015.6 |
| 20260507103008 | 38 | 219 | 0.0 | 0.0 | 0.00 | 0.00 | 0.00 | 85 | 1015.6 |
| 20260507101516 | 37 | 360 | 0.0 | 0.0 | 0.00 | 0.00 | 0.00 | 85 | 1015.6 |
| 20260507100006 | 37 | 360 | 0.0 | 0.0 | 0.00 | 0.00 | 0.00 | 84 | 1015.6 |
| 20260507094504 | 37 | 360 | 0.0 | 0.0 | 0.00 | 0.00 | 0.00 | 83 | 1015.6 |
| 20260507093004 | 38 | 360 | 0.0 | 0.0 | 0.00 | 0.00 | 0.00 | 82 | 1015.6 |
| 20260507091503 | 38 | 360 | 0.0 | 0.0 | 0.00 | 0.00 | 0.00 | 81 | 1015.4 |
| 20260507090005 | 38 | 360 | 0.0 | 0.0 | 0.00 | 0.00 | 0.00 | 82 | 1015.5 |
| 20260507084502 | 38 | 360 | 0.0 | 0.0 | 0.00 | 0.00 | 0.00 | 83 | 1015.4 |